Eagle, AK

8:53 AM AKDT on October 14, 2019 (GMT -0800)
Eagle

Weather History for PAEG - September, 2019

Change the Weather History Date:

Saturday, September 21, 2019

  Actual Average (WUND) Record (WUND)
Temperature  
Mean Temperature 48 °F -  
Max Temperature 53 °F - - (-1)
Min Temperature 41 °F - - (-1)
Degree Days  
Heating Degree Days 18    
Moisture  
Dew Point 44 °F    
Average Humidity 89    
Maximum Humidity 97    
Minimum Humidity 71    
Precipitation  
Precipitation 0.32 in - - ()
Sea Level Pressure  
Sea Level Pressure 29.26 in    
Wind  
Wind Speed 1 mph (NNE)    
Max Wind Speed 7 mph    
Max Gust Speed -    
Visibility 8 miles    
Events Rain    
Averages and records for this station are not official NWS values.
T = Trace of Precipitation, MM = Missing Value Source: NWS Daily Summary

Daily Weather History Graph

Daily Weather History Graph

Search for Another Location

Airport or City:

Astronomy

Sep. 21, 2019 Rise Set
Actual Time 7:04 AM AKDT 7:29 PM AKDT
Civil Twilight 6:15 AM AKDT 8:18 PM AKDT
Nautical Twilight 5:14 AM AKDT 9:18 PM AKDT
Astronomical Twilight 4:03 AM AKDT 10:28 PM AKDT
Moon 9:23 PM AKDT (9/21) 5:09 PM AKDT (9/21)
Length of Visible Light 14h 03m
Length of Day
12h 24m
Waning Gibbous, 53% of the Moon is Illuminated
Sep 21
Waning Gibbous
Sep 21
Last Quarter
Sep 28
New
Oct 5
First Quarter
Oct 13
Full

Hourly Weather History & Observations

Time (AKDT) Temp. Windchill Dew Point Humidity Pressure Visibility Wind Dir Wind Speed Gust Speed Precip Events Conditions
12:46 AM 46.0 °F - 45.0 °F 96% 29.08 in 8.0 mi Calm Calm - 0.04 in Rain Light Rain
12:53 AM 46.0 °F - 45.0 °F 96% 29.10 in 8.0 mi Calm Calm - 0.04 in Rain Light Rain
1:14 AM 46.0 °F - 45.0 °F 96% 29.08 in 8.0 mi Calm Calm - 0.01 in Rain Light Rain
1:53 AM 46.0 °F - 45.0 °F 96% 29.10 in 6.0 mi Calm Calm - 0.04 in Rain Light Rain
2:09 AM 46.0 °F - 45.0 °F 96% 29.09 in 7.0 mi Calm Calm - 0.02 in Rain Light Rain
2:17 AM 46.9 °F - 45.0 °F 93% 29.09 in 5.0 mi Calm Calm - 0.03 in Rain Light Rain
3:19 AM 46.0 °F - 45.0 °F 96% 29.11 in 4.0 mi Calm Calm - 0.03 in Rain Light Rain
3:27 AM 46.9 °F - 45.0 °F 93% 29.11 in 5.0 mi Calm Calm - 0.04 in Rain Light Rain
3:53 AM 46.9 °F - 45.0 °F 93% 29.12 in 7.0 mi Calm Calm - 0.07 in Rain Light Rain
4:17 AM 46.0 °F - 45.0 °F 96% 29.11 in 7.0 mi Calm Calm - 0.01 in Rain Light Rain
4:53 AM 46.0 °F - 45.0 °F 96% 29.13 in 4.0 mi Calm Calm - 0.05 in Rain Light Rain
5:53 AM 46.0 °F - 45.0 °F 96% 29.15 in 4.0 mi Calm Calm - 0.06 in Rain Light Rain
6:53 AM 46.0 °F - 45.0 °F 96% 29.16 in 10.0 mi Calm Calm - 0.00 in   Overcast
7:29 AM 46.0 °F - 44.1 °F 93% 29.16 in 10.0 mi Calm Calm - N/A   Overcast
7:53 AM 46.0 °F - 44.1 °F 93% 29.19 in 10.0 mi Calm Calm - N/A   Overcast
8:53 AM 48.0 °F - 45.0 °F 89% 29.21 in 10.0 mi Calm Calm - N/A   Overcast
9:53 AM 48.9 °F - 45.0 °F 86% 29.23 in 10.0 mi Calm Calm - N/A   Overcast
10:53 AM 50.0 °F - 44.1 °F 80% 29.26 in 10.0 mi Calm Calm - N/A   Overcast
11:53 AM 50.0 °F - 45.0 °F 83% 29.28 in 10.0 mi ENE 3.5 mph - N/A   Overcast
12:53 PM 51.1 °F - 44.1 °F 77% 29.29 in 10.0 mi NE 3.5 mph - N/A   Overcast
1:02 PM 52.0 °F - 43.0 °F 71% 29.28 in 10.0 mi Calm Calm - N/A   Overcast
1:29 PM 51.1 °F - 44.1 °F 77% 29.29 in 10.0 mi Calm Calm - N/A   Overcast
1:53 PM 51.1 °F - 43.0 °F 74% 29.31 in 10.0 mi Calm Calm - N/A   Overcast
2:28 PM 53.1 °F - 46.0 °F 77% 29.30 in 10.0 mi North 4.6 mph - N/A   Overcast
2:43 PM 52.0 °F - 44.1 °F 74% 29.31 in 10.0 mi North 4.6 mph - N/A   Overcast
2:53 PM 51.1 °F - 45.0 °F 80% 29.33 in 10.0 mi North 6.9 mph - N/A   Overcast
3:16 PM 50.0 °F - 46.0 °F 86% 29.32 in 7.0 mi NE 3.5 mph - 0.02 in Rain Light Rain
3:53 PM 50.0 °F - 45.0 °F 83% 29.34 in 10.0 mi Calm Calm - 0.02 in   Overcast
4:53 PM 48.0 °F - 46.0 °F 93% 29.36 in 5.0 mi SW 3.5 mph - 0.02 in Rain Light Rain
5:30 PM 48.0 °F - 46.0 °F 93% 29.36 in 1.8 mi Calm Calm - 0.03 in Rain Rain
5:50 PM 48.2 °F - 46.4 °F 93% 29.36 in 2.0 mi Calm Calm - 0.10 in Rain Light Rain
6:53 PM 46.9 °F - 46.0 °F 97% 29.40 in 10.0 mi Calm Calm - 0.02 in   Overcast
7:38 PM 46.0 °F - 44.1 °F 93% 29.40 in 10.0 mi Calm Calm - N/A   Overcast
7:53 PM 46.0 °F 44.8 °F 44.1 °F 93% 29.42 in 10.0 mi WSW 3.5 mph - N/A   Overcast
8:53 PM 45.0 °F - 43.0 °F 93% 29.44 in 10.0 mi Calm Calm - N/A   Overcast
9:53 PM 44.1 °F - 42.1 °F 93% 29.46 in 10.0 mi Calm Calm - N/A   Overcast
10:53 PM 42.1 °F - 39.9 °F 92% 29.48 in 10.0 mi Calm Calm - N/A   Overcast
11:53 PM 41.0 °F - 39.9 °F 96% 29.49 in 10.0 mi Calm Calm - N/A   Overcast